Find Gao Fen 3-03

NORAD ID: 52200 Int'l Des: 2022-035 Owner: GWHYZ Country: CN operational
LEOCIRCULARRETROGRADESSO

实时位置

正在加载3D地球...

关于 Gao Fen 3-03

正在加载描述...

即将过境

Passes for default location (London). Set your location on the main map for personalized predictions.

高度历史

Loading altitude history...

两行轨道根数

1 52200U 22035A 26121.81585128 .00000015 00000-0 17624-4 0 9991
2 52200 98.4075 131.0665 0001217 65.2910 294.8406 14.42217396214166
Epoch: May 1, 2026 • Age: 10 hours

当前状态

高度 776.9 km
速度 7.46 km/s
星下点 -66.47°S, 147.8°W
发射日期 Apr 6, 2022
运行时间 4 years
类型 other

技术详情

分类 Payload
质量 2779.00 kg
干质量 2500.00 kg
总质量 2779.00 kg
长度 2.00 m
直径 2.00 m
跨度 8.00 m
形状 Box + 3 Pan
制造商 CAST
平台类型 CS-L3000B
阶段状态 In Orbit
所有者/国家 GWHYZ/CN

Most Searched